Theta_e
341 332 337 339 341 340 337 339 340 337 329 335 336 333 330 329 333 331 331 332 331 334 330 330 332 332 332 332 331 330 331 330 330
339 339 329 336 339 339 336 335 337 334 331 335 337 335 329 331 331 331 331 331 332 333 333 333 333 332 332 332 330 331 331 331 330
338 339 339 328 337 339 337 334 333 333 332 333 335 331 328 328 330 330 331 333 330 333 333 333 333 332 332 332 332 332 331 330 328
337 338 338 337 330 338 339 336 334 334 333 332 330 328 327 329 329 330 331 331 330 334 334 333 333 333 332 332 331 330 329 327 325
337 337 338 338 336 332 337 338 337 336 335 334 333 332 328 328 329 329 329 330 329 334 335 333 333 332 332 331 331 330 328 328 325
339 339 339 339 337 337 336 337 338 336 333 334 335 335 334 333 330 328 327 326 328 329 338 335 331 332 333 331 329 329 328 328 326
338 338 338 335 335 336 337 336 337 337 337 336 335 335 333 332 332 330 328 325 325 330 333 338 334 331 331 331 330 329 329 329 329
329 337 338 339 337 337 338 338 338 338 338 337 335 332 331 331 331 332 331 326 324 326 333 333 336 335 333 332 332 332 331 331 330
319 326 335 337 339 338 338 337 338 337 337 337 337 333 331 330 330 330 331 330 328 326 332 334 334 336 335 335 334 333 331 330 330
313 317 324 332 334 337 337 337 338 338 337 337 337 336 333 330 329 330 332 331 330 326 325 329 331 335 337 336 335 334 331 331 330
313 314 319 323 332 335 337 335 337 337 337 337 337 337 335 332 330 329 329 328 327 325 325 326 330 331 334 337 336 334 332 332 332
312 312 313 315 322 330 334 334 335 336 337 337 336 336 336 335 333 330 329 329 329 327 326 326 328 332 333 334 336 336 334 333 332
312 312 313 313 317 323 329 332 334 335 335 336 336 336 336 335 335 335 334 333 334 333 331 327 325 327 331 334 335 335 333 333 331
312 312 312 313 314 317 324 329 331 334 334 334 335 334 334 334 334 333 334 335 335 335 333 331 328 326 326 326 331 333 333 332 330
311 312 312 312 313 315 321 328 331 331 332 332 332 332 333 333 333 333 334 333 333 333 333 332 331 330 330 329 329 329 328 328 330
312 312 312 313 313 315 319 328 330 330 330 331 331 330 331 332 333 332 333 331 330 329 328 328 327 326 326 325 323 325 325 327 327
312 312 314 313 313 315 316 323 328 329 328 330 329 331 328 328 331 331 330 329 327 327 327 326 326 326 326 326 326 325 324 324 325
312 312 313 313 314 315 317 324 328 328 329 328 327 328 328 325 323 324 325 324 325 325 324 324 323 323 325 325 326 326 325 324 324
313 312 314 314 316 318 320 324 327 327 327 324 324 324 324 325 326 323 324 324 323 323 323 321 322 323 324 325 325 325 325 323 324
312 315 316 316 318 319 323 324 325 326 326 326 324 321 320 321 323 322 321 321 322 322 321 321 320 323 324 323 323 322 322 321 322
Wind_Speed
11 11 12 11 10 12 11 12 14 13 12 12 12 10 8 6 5 4 4 4 5 4 4 6 5 4 4 5 5 4 4 4 4
15 13 14 15 12 14 14 14 15 15 14 14 14 12 10 6 7 7 6 5 6 4 5 5 5 5 4 4 4 4 4 4 3
16 15 15 17 17 16 17 16 16 15 16 16 16 14 11 9 8 8 8 9 8 6 6 6 6 5 5 5 5 4 4 3 3
18 18 17 18 19 19 20 19 18 17 17 17 18 17 14 11 10 10 10 11 9 8 8 7 7 7 6 6 6 6 5 5 4
19 19 19 20 20 20 19 21 21 19 18 19 19 18 16 14 13 12 12 14 11 12 11 9 9 9 8 8 7 7 7 6 6
17 18 20 21 21 22 22 22 22 20 19 19 20 19 16 16 16 15 16 15 15 14 14 13 10 11 11 10 10 10 9 9 9
15 18 21 22 22 23 23 22 23 22 18 18 22 20 20 19 18 17 19 17 16 16 15 16 14 12 13 13 12 12 12 11 11
14 15 19 18 20 21 21 21 22 23 22 21 19 20 21 20 19 19 21 19 19 18 17 16 17 17 15 14 15 14 14 14 14
17 16 17 19 19 19 21 23 24 25 25 22 20 20 20 20 19 19 22 21 19 18 17 17 17 18 18 17 16 16 15 16 16
20 20 18 20 21 19 22 22 23 24 25 25 23 22 21 21 20 18 20 22 21 20 20 20 19 18 19 20 19 18 16 17 17
19 21 21 20 19 20 20 26 23 25 24 25 26 25 23 22 21 20 18 21 23 23 22 21 21 21 20 21 21 21 20 20 20
20 20 22 22 20 20 19 21 26 25 25 27 26 27 26 23 22 21 19 17 20 24 24 24 23 21 22 21 22 23 23 23 23
20 21 21 21 21 20 21 21 23 27 26 25 30 29 27 27 24 22 20 20 16 15 19 22 25 24 22 21 22 24 26 26 27
20 21 20 20 21 21 19 21 21 23 26 24 26 26 30 33 29 22 20 18 16 15 16 18 19 21 22 24 24 24 26 27 28
19 19 19 20 21 21 19 18 19 21 20 20 26 28 25 29 26 22 19 17 14 13 14 13 14 17 20 23 25 27 27 28 30
17 18 18 18 21 20 19 16 19 16 16 8 16 18 16 20 18 17 16 14 12 10 11 11 12 12 15 18 21 24 27 27 27
15 16 18 18 19 19 19 18 14 13 12 7 4 3 5 4 9 10 12 12 9 8 6 7 9 12 13 14 19 22 21 21 22
16 17 15 15 16 17 17 16 15 11 7 7 5 2 2 2 3 3 8 8 5 2 5 6 10 12 14 15 16 18 19 21 22
16 14 15 15 15 15 15 13 10 10 7 15 16 15 9 3 2 0 2 2 3 4 6 11 11 13 14 12 16 18 19 19 19
19 13 8 9 9 9 8 7 5 8 12 10 9 7 12 7 3 2 5 9 7 8 10 15 15 8 8 12 13 17 14 13 12
Wind_Direction
245 240 236 237 225 217 206 196 194 201 197 190 189 190 196 201 212 205 206 173 185 171 175 172 151 140 139 136 137 138 134 128 124
255 245 239 235 238 229 219 211 207 207 205 200 202 209 214 210 215 211 207 206 196 195 187 178 177 173 170 164 164 166 157 148 144
263 256 249 242 235 231 229 226 220 215 213 209 211 216 216 213 217 213 210 217 193 204 203 202 199 199 196 194 192 191 187 186 184
266 260 255 250 244 238 232 227 225 219 218 218 219 220 218 216 223 215 215 225 200 207 210 211 215 217 216 213 212 212 211 213 214
263 261 261 254 247 246 243 236 229 224 222 221 221 224 227 222 225 223 221 226 211 199 215 215 215 222 227 230 230 231 230 230 232
261 258 252 252 255 251 249 244 238 231 230 225 223 222 228 234 229 226 227 223 221 215 216 221 222 219 224 232 234 235 238 240 240
266 257 253 254 251 252 252 245 238 233 230 229 226 225 229 232 233 232 233 226 225 224 223 226 232 232 229 229 234 236 237 241 244
278 271 257 258 254 246 246 242 235 229 227 228 223 227 228 230 232 234 239 232 232 230 230 229 235 238 238 236 234 236 240 241 242
276 274 270 257 249 242 238 234 231 230 230 227 227 227 228 229 231 233 240 232 235 234 234 236 237 243 240 241 240 239 244 249 251
272 269 266 266 261 248 241 236 232 228 230 231 230 228 229 230 231 234 243 233 234 237 237 239 241 243 244 245 244 246 246 252 254
270 267 264 265 263 254 246 239 236 234 232 230 231 231 230 229 229 233 239 246 238 239 240 242 245 247 249 247 249 249 249 252 256
271 270 265 261 262 263 253 247 241 235 231 233 234 232 229 226 225 225 232 241 249 243 245 246 247 249 249 248 250 254 258 258 260
272 267 264 262 259 260 260 251 243 240 230 227 229 229 228 226 223 222 227 240 242 253 252 248 249 250 253 253 255 256 257 259 263
276 270 263 259 257 256 256 252 250 239 232 231 230 229 228 231 227 226 228 225 232 240 251 252 250 252 253 256 258 259 261 263 265
280 275 270 262 253 253 252 251 244 248 238 227 233 232 222 221 220 213 219 222 224 239 243 248 260 265 260 260 262 263 263 264 267
291 280 269 259 251 247 249 248 242 238 248 282 228 242 234 220 204 209 208 212 209 230 244 253 259 265 278 278 272 269 270 269 271
297 287 276 261 246 242 244 238 239 243 229 207 227 221 202 224 232 218 212 212 205 205 224 255 272 280 282 282 281 283 281 282 280
332 316 287 268 259 252 242 236 233 243 224 211 128 311 114 48 110 264 194 170 168 223 290 287 296 291 289 294 294 301 293 290 290
333 313 290 273 260 250 244 237 233 230 197 117 109 105 90 73 80 9 287 25 340 324 314 313 310 305 299 298 284 284 284 287 290
350 336 320 276 263 250 234 230 224 213 183 162 160 148 134 151 138 209 313 327 316 336 327 335 310 303 289 286 283 289 294 300 311